CHX42 EDXR-EDXR

Flight info

Callsign CHX42
Flight time 4h 47m
Altitude 2500
Route VFR
Aircraft EC45/L-VGD/A

Departure

Time 2026-04-27 13:28
Airport Rendsburg-Schachtholm Airfield (EDXR)

Arrival

Time 2026-04-27 18:15
Airport Rendsburg-Schachtholm Airfield (EDXR)
Time Latitude Longitude Altitude Speed Heading
2026-04-27 13:11 54.21703 9.59981 27 ft 0 kts 52°
2026-04-27 13:26 54.21713 9.59916 39 ft 23 kts 315°
2026-04-27 13:27 54.21768 9.59692 31 ft 2 kts 343°
2026-04-27 13:27 54.21891 9.59821 51 ft 60 kts 44°
2026-04-27 13:27 54.22367 9.60417 137 ft 107 kts 33°
2026-04-27 13:27 54.23130 9.60593 515 ft 129 kts 333°
2026-04-27 13:28 54.23676 9.59291 956 ft 139 kts 302°
2026-04-27 13:28 54.24256 9.58215 1759 ft 118 kts 354°
2026-04-27 13:28 54.25046 9.58164 2359 ft 114 kts 357°
2026-04-27 13:28 54.25927 9.57891 2517 ft 146 kts 348°
2026-04-27 13:29 54.26902 9.57417 2943 ft 144 kts 346°
2026-04-27 13:29 54.27893 9.56937 3155 ft 153 kts 346°
2026-04-27 13:29 54.28911 9.56450 3036 ft 147 kts 346°
2026-04-27 13:29 54.29864 9.55986 3061 ft 140 kts 346°
2026-04-27 13:30 54.30804 9.55528 3093 ft 141 kts 346°
2026-04-27 13:30 54.31428 9.55232 3098 ft 140 kts 347°
2026-04-27 13:30 54.32382 9.54816 3114 ft 142 kts 348°
2026-04-27 13:30 54.33352 9.54413 3113 ft 145 kts 348°
2026-04-27 13:31 54.34340 9.54009 3112 ft 147 kts 348°
2026-04-27 13:31 54.35335 9.53603 3107 ft 147 kts 348°
2026-04-27 13:31 54.36334 9.53193 3105 ft 148 kts 348°
2026-04-27 13:31 54.37644 9.52652 3100 ft 145 kts 348°
2026-04-27 13:32 54.38306 9.52378 3096 ft 144 kts 348°
2026-04-27 13:32 54.39272 9.51977 3107 ft 143 kts 348°
2026-04-27 13:32 54.40238 9.51579 3110 ft 142 kts 349°
2026-04-27 13:32 54.41205 9.51220 3106 ft 141 kts 349°
2026-04-27 13:33 54.42138 9.50899 3114 ft 136 kts 350°
2026-04-27 13:33 54.43066 9.50578 3120 ft 137 kts 350°
2026-04-27 13:33 54.44011 9.50249 3120 ft 139 kts 350°
2026-04-27 13:33 54.44954 9.49928 3117 ft 138 kts 350°
2026-04-27 13:34 54.45884 9.49606 3120 ft 135 kts 350°
2026-04-27 13:34 54.46799 9.49288 3125 ft 134 kts 350°
2026-04-27 13:34 54.47710 9.48968 3127 ft 134 kts 350°
2026-04-27 13:34 54.48624 9.48639 3128 ft 135 kts 350°
2026-04-27 13:35 54.49552 9.48301 3128 ft 138 kts 350°
2026-04-27 13:35 54.50505 9.47958 3111 ft 141 kts 350°
2026-04-27 13:35 54.51438 9.47632 2656 ft 132 kts 350°
2026-04-27 13:35 54.52322 9.47319 2302 ft 127 kts 350°
2026-04-27 13:36 54.53210 9.47006 2067 ft 133 kts 350°
2026-04-27 13:36 54.54158 9.46669 1789 ft 138 kts 349°
2026-04-27 13:36 54.55067 9.46355 1871 ft 135 kts 350°
2026-04-27 13:36 54.56008 9.46028 1946 ft 140 kts 350°
2026-04-27 13:37 54.56995 9.45689 1922 ft 147 kts 350°
2026-04-27 13:37 54.57965 9.45354 1870 ft 137 kts 350°
2026-04-27 13:37 54.58884 9.45030 1872 ft 133 kts 350°
2026-04-27 13:37 54.59784 9.44721 1885 ft 132 kts 350°
2026-04-27 13:38 54.60695 9.44406 1883 ft 132 kts 350°
2026-04-27 13:38 54.61597 9.44093 1891 ft 133 kts 350°
2026-04-27 13:38 54.62516 9.43774 1885 ft 135 kts 350°
2026-04-27 13:38 54.63440 9.43446 1885 ft 136 kts 349°
2026-04-27 13:39 54.64349 9.43125 1880 ft 135 kts 350°
2026-04-27 13:39 54.65281 9.42800 1881 ft 138 kts 350°
2026-04-27 13:39 54.66205 9.42475 1881 ft 134 kts 350°
2026-04-27 13:39 54.67118 9.42154 1884 ft 133 kts 350°
2026-04-27 13:40 54.68033 9.41830 1886 ft 135 kts 350°
2026-04-27 13:40 54.68941 9.41508 1887 ft 133 kts 350°
2026-04-27 13:40 54.69860 9.41188 1881 ft 135 kts 350°
2026-04-27 13:40 54.70774 9.40871 1879 ft 132 kts 350°
2026-04-27 13:41 54.71680 9.40663 1816 ft 134 kts
2026-04-27 13:41 54.72611 9.41079 1577 ft 140 kts 16°
2026-04-27 13:41 54.73555 9.41534 1328 ft 139 kts 16°
2026-04-27 13:41 54.74457 9.41966 1308 ft 129 kts 16°
2026-04-27 13:42 54.75307 9.42371 1270 ft 123 kts 16°
2026-04-27 13:42 54.76156 9.42774 1108 ft 129 kts 16°
2026-04-27 13:42 54.77018 9.42708 1005 ft 121 kts 349°
2026-04-27 13:42 54.77839 9.42497 910 ft 117 kts 355°
2026-04-27 13:43 54.78624 9.42264 702 ft 114 kts 350°
2026-04-27 13:43 54.79369 9.42113 566 ft 102 kts 29°
2026-04-27 13:43 54.79445 9.43144 354 ft 105 kts 140°
2026-04-27 13:43 54.78829 9.42976 388 ft 90 kts 223°
2026-04-27 13:44 54.78440 9.42270 445 ft 78 kts 253°
2026-04-27 13:44 54.78548 9.41925 536 ft 26 kts 63°
2026-04-27 13:44 54.78735 9.42179 458 ft 39 kts 56°
2026-04-27 13:44 54.78910 9.42433 374 ft 15 kts 39°
2026-04-27 13:45 54.78967 9.42478 267 ft 5 kts 37°
2026-04-27 13:45 54.78986 9.42503 208 ft 2 kts 37°
2026-04-27 13:45 54.78992 9.42512 180 ft 0 kts 37°
2026-04-27 13:59 54.78987 9.42506 208 ft 2 kts 37°
2026-04-27 13:59 54.78969 9.42483 353 ft 2 kts 37°
2026-04-27 13:59 54.78956 9.42463 520 ft 4 kts 37°
2026-04-27 13:59 54.79187 9.42794 711 ft 78 kts 50°
2026-04-27 14:00 54.79180 9.44057 704 ft 141 kts 123°
2026-04-27 14:00 54.78155 9.44533 773 ft 163 kts 179°
2026-04-27 14:00 54.77047 9.44477 1149 ft 158 kts 181°
2026-04-27 14:00 54.75967 9.44432 1326 ft 154 kts 171°
2026-04-27 14:01 54.74996 9.45199 1323 ft 155 kts 148°
2026-04-27 14:01 54.74070 9.46172 1323 ft 157 kts 146°
2026-04-27 14:01 54.73207 9.47233 1325 ft 148 kts 139°
2026-04-27 14:01 54.72460 9.48379 1338 ft 140 kts 133°
2026-04-27 14:02 54.71780 9.49560 1339 ft 135 kts 131°
2026-04-27 14:02 54.71142 9.50726 1327 ft 134 kts 130°
2026-04-27 14:02 54.70503 9.51918 1323 ft 137 kts 130°
2026-04-27 14:02 54.69846 9.53151 1336 ft 142 kts 129°
2026-04-27 14:03 54.69173 9.54426 1343 ft 145 kts 129°
2026-04-27 14:03 54.68488 9.55723 1325 ft 149 kts 129°
2026-04-27 14:03 54.67786 9.57051 1337 ft 150 kts 129°
2026-04-27 14:03 54.67085 9.58373 1345 ft 149 kts 129°
2026-04-27 14:04 54.66401 9.59675 1367 ft 141 kts 130°
2026-04-27 14:04 54.65760 9.60903 1429 ft 137 kts 129°
2026-04-27 14:04 54.65119 9.62132 1441 ft 138 kts 129°
2026-04-27 14:04 54.64486 9.63337 1441 ft 138 kts 129°
2026-04-27 14:05 54.63844 9.64539 1436 ft 134 kts 129°
2026-04-27 14:05 54.63213 9.65705 1440 ft 132 kts 129°
2026-04-27 14:05 54.62591 9.66850 1451 ft 130 kts 129°
2026-04-27 14:05 54.61961 9.68020 1428 ft 135 kts 129°
2026-04-27 14:06 54.61326 9.69201 1434 ft 132 kts 129°
2026-04-27 14:06 54.60715 9.70322 1435 ft 125 kts 129°
2026-04-27 14:06 54.60328 9.71029 1458 ft 119 kts 129°
2026-04-27 14:06 54.59754 9.72080 1517 ft 128 kts 129°
2026-04-27 14:07 54.59129 9.73253 1560 ft 139 kts 129°
2026-04-27 14:07 54.58226 9.74980 1552 ft 150 kts 129°
2026-04-27 14:07 54.57502 9.76378 1495 ft 165 kts 129°
2026-04-27 14:07 54.56738 9.77870 1462 ft 161 kts 129°
2026-04-27 14:08 54.56259 9.78795 1456 ft 152 kts 129°
2026-04-27 14:08 54.55573 9.80115 1475 ft 143 kts 129°
2026-04-27 14:08 54.54915 9.81375 1491 ft 139 kts 129°
2026-04-27 14:08 54.54254 9.82614 1502 ft 142 kts 129°
2026-04-27 14:09 54.53588 9.83866 1499 ft 142 kts 129°
2026-04-27 14:09 54.52925 9.85104 1495 ft 140 kts 129°
2026-04-27 14:09 54.52266 9.86343 1494 ft 141 kts 129°
2026-04-27 14:09 54.51610 9.87591 1494 ft 141 kts 129°
2026-04-27 14:10 54.50959 9.88832 1495 ft 139 kts 129°
2026-04-27 14:10 54.50311 9.90055 1499 ft 138 kts 129°
2026-04-27 14:10 54.49663 9.91271 1501 ft 139 kts 129°
2026-04-27 14:10 54.49011 9.92512 1499 ft 140 kts 129°
2026-04-27 14:11 54.48354 9.93761 1494 ft 141 kts 129°
2026-04-27 14:11 54.47694 9.95014 1492 ft 141 kts 129°
2026-04-27 14:11 54.47035 9.96265 1491 ft 141 kts 129°
2026-04-27 14:11 54.46378 9.97495 1491 ft 137 kts 129°
2026-04-27 14:12 54.45734 9.98684 1502 ft 136 kts 129°
2026-04-27 14:12 54.45085 9.99880 1504 ft 137 kts 129°
2026-04-27 14:12 54.44436 10.01098 1503 ft 139 kts 129°
2026-04-27 14:12 54.43776 10.02314 1495 ft 139 kts 131°
2026-04-27 14:13 54.43086 10.03463 1493 ft 137 kts 133°
2026-04-27 14:13 54.42405 10.04554 1502 ft 132 kts 134°
2026-04-27 14:13 54.41702 10.05610 1495 ft 135 kts 140°
2026-04-27 14:13 54.40928 10.06507 1495 ft 137 kts 143°
2026-04-27 14:14 54.40115 10.07391 1498 ft 139 kts 144°
2026-04-27 14:14 54.39291 10.08262 1498 ft 140 kts 145°
2026-04-27 14:14 54.38459 10.09142 1497 ft 141 kts 145°
2026-04-27 14:14 54.37625 10.10023 1493 ft 141 kts 145°
2026-04-27 14:15 54.36797 10.10893 1493 ft 137 kts 145°
2026-04-27 14:15 54.35997 10.11718 1325 ft 130 kts 146°
2026-04-27 14:15 54.35220 10.12449 1011 ft 123 kts 148°
2026-04-27 14:15 54.34501 10.13054 884 ft 110 kts 150°
2026-04-27 14:16 54.33827 10.13581 733 ft 104 kts 152°
2026-04-27 14:16 54.33196 10.14152 549 ft 102 kts 147°
2026-04-27 14:16 54.32600 10.14543 542 ft 84 kts 198°
2026-04-27 14:16 54.32515 10.13900 620 ft 53 kts 29°
2026-04-27 14:17 54.32855 10.14060 464 ft 57 kts 40°
2026-04-27 14:17 54.33067 10.14209 245 ft 12 kts 53°
2026-04-27 14:17 54.33096 10.14240 196 ft 5 kts 82°
2026-04-27 14:17 54.33101 10.14268 161 ft 1 kts 82°
2026-04-27 14:18 54.33101 10.14278 147 ft 1 kts 83°
2026-04-27 14:18 54.33102 10.14279 146 ft 0 kts 83°
2026-04-27 14:32 54.33101 10.14273 156 ft 1 kts 83°
2026-04-27 14:32 54.33099 10.14212 237 ft 8 kts 83°
2026-04-27 14:32 54.33094 10.14138 344 ft 3 kts 85°
2026-04-27 14:33 54.33090 10.14501 576 ft 67 kts 90°
2026-04-27 14:33 54.32817 10.15345 858 ft 91 kts 135°
2026-04-27 14:33 54.32218 10.16202 964 ft 137 kts 137°
2026-04-27 14:33 54.31443 10.17307 1143 ft 149 kts 137°
2026-04-27 14:34 54.30616 10.18481 1111 ft 156 kts 137°
2026-04-27 14:34 54.29781 10.19664 1136 ft 156 kts 137°
2026-04-27 14:34 54.28981 10.20845 1105 ft 150 kts 135°
2026-04-27 14:34 54.28234 10.22040 1096 ft 145 kts 133°
2026-04-27 14:35 54.27513 10.23216 1100 ft 142 kts 133°
2026-04-27 14:35 54.26814 10.24367 1105 ft 137 kts 133°
2026-04-27 14:35 54.26130 10.25507 1110 ft 139 kts 132°
2026-04-27 14:35 54.25427 10.26686 1106 ft 142 kts 133°
2026-04-27 14:36 54.24728 10.27854 1104 ft 141 kts 132°
2026-04-27 14:36 54.24028 10.28996 1104 ft 138 kts 132°
2026-04-27 14:36 54.23336 10.30126 1105 ft 137 kts 132°
2026-04-27 14:36 54.22638 10.31269 1111 ft 141 kts 132°
2026-04-27 14:37 54.21939 10.32468 1104 ft 144 kts 130°
2026-04-27 14:37 54.21245 10.33710 1098 ft 144 kts 130°
2026-04-27 14:37 54.20655 10.34789 1096 ft 144 kts 129°
2026-04-27 14:37 54.19966 10.36054 1090 ft 142 kts 129°
2026-04-27 14:38 54.19311 10.37259 1098 ft 136 kts 129°
2026-04-27 14:38 54.18666 10.38450 1103 ft 135 kts 129°
2026-04-27 14:38 54.18022 10.39610 1106 ft 135 kts 129°
2026-04-27 14:38 54.17366 10.40779 1111 ft 139 kts 129°
2026-04-27 14:39 54.16692 10.41985 1099 ft 141 kts 129°
2026-04-27 14:39 54.16026 10.43169 1096 ft 135 kts 129°
2026-04-27 14:39 54.15404 10.44310 1107 ft 135 kts 128°
2026-04-27 14:39 54.14769 10.45501 1106 ft 136 kts 127°
2026-04-27 14:40 54.14133 10.46710 1106 ft 138 kts 127°
2026-04-27 14:40 54.13492 10.47935 1100 ft 139 kts 127°
2026-04-27 14:40 54.12847 10.49174 1093 ft 139 kts 127°
2026-04-27 14:40 54.12217 10.50401 1095 ft 137 kts 127°
2026-04-27 14:41 54.11586 10.51623 1098 ft 137 kts 127°
2026-04-27 14:41 54.10953 10.52840 1100 ft 137 kts 127°
2026-04-27 14:41 54.10329 10.54047 1100 ft 134 kts 127°
2026-04-27 14:41 54.09713 10.55247 1104 ft 135 kts 127°
2026-04-27 14:42 54.09086 10.56455 1106 ft 138 kts 127°
2026-04-27 14:42 54.08452 10.57673 1098 ft 135 kts 128°
2026-04-27 14:42 54.07841 10.58865 1106 ft 134 kts 127°
2026-04-27 14:42 54.07225 10.60053 1109 ft 135 kts 127°
2026-04-27 14:43 54.06591 10.61255 1107 ft 138 kts 127°
2026-04-27 14:43 54.05968 10.62462 1104 ft 134 kts 127°
2026-04-27 14:43 54.05355 10.63660 1110 ft 135 kts 127°
2026-04-27 14:43 54.04729 10.64869 1105 ft 137 kts 127°
2026-04-27 14:44 54.04107 10.66075 1104 ft 135 kts 127°
2026-04-27 14:44 54.03489 10.67273 1106 ft 135 kts 127°
2026-04-27 14:44 54.02850 10.68490 1105 ft 139 kts 127°
2026-04-27 14:44 54.02207 10.69703 1097 ft 138 kts 128°
2026-04-27 14:45 54.01572 10.70889 1098 ft 137 kts 128°
2026-04-27 14:45 54.00932 10.72081 1101 ft 137 kts 128°
2026-04-27 14:45 54.00290 10.73280 1101 ft 137 kts 128°
2026-04-27 14:45 53.99648 10.74470 1102 ft 137 kts 128°
2026-04-27 14:46 53.99008 10.75677 1101 ft 137 kts 128°
2026-04-27 14:46 53.98372 10.76871 1103 ft 136 kts 128°
2026-04-27 14:46 53.97734 10.78050 1101 ft 135 kts 128°
2026-04-27 14:46 53.97092 10.79237 1105 ft 138 kts 128°
2026-04-27 14:47 53.96434 10.80448 1099 ft 140 kts 128°
2026-04-27 14:47 53.95780 10.81648 1094 ft 137 kts 128°
2026-04-27 14:47 53.95134 10.82839 1098 ft 137 kts 128°
2026-04-27 14:47 53.94492 10.84056 1103 ft 140 kts 128°
2026-04-27 14:48 53.93840 10.85293 1098 ft 140 kts 128°
2026-04-27 14:48 53.92531 10.87775 1092 ft 143 kts 128°
2026-04-27 14:48 53.91867 10.89015 1086 ft 139 kts 128°
2026-04-27 14:49 53.91227 10.90211 1095 ft 135 kts 128°
2026-04-27 14:49 53.90573 10.91398 1096 ft 140 kts 129°
2026-04-27 14:49 53.89892 10.92595 1095 ft 141 kts 129°
2026-04-27 14:49 53.89221 10.93749 1092 ft 135 kts 130°
2026-04-27 14:50 53.88555 10.94881 1100 ft 137 kts 130°
2026-04-27 14:50 53.87877 10.96031 1102 ft 138 kts 130°
2026-04-27 14:50 53.87200 10.97185 1098 ft 139 kts 130°
2026-04-27 14:50 53.86516 10.98360 1098 ft 140 kts 130°
2026-04-27 14:51 53.85833 10.99533 1094 ft 140 kts 130°
2026-04-27 14:51 53.85151 11.00704 1095 ft 140 kts 130°
2026-04-27 14:51 53.84469 11.01877 1094 ft 140 kts 130°
2026-04-27 14:51 53.84017 11.02659 1094 ft 140 kts 130°
2026-04-27 14:52 53.83108 11.04226 1092 ft 141 kts 130°
2026-04-27 14:52 53.82427 11.05405 1089 ft 139 kts 130°
2026-04-27 14:52 53.81752 11.06573 1094 ft 138 kts 130°
2026-04-27 14:52 53.81077 11.07739 1096 ft 139 kts 130°
2026-04-27 14:53 53.80406 11.08874 1093 ft 135 kts 130°
2026-04-27 14:53 53.79730 11.10000 1099 ft 137 kts 130°
2026-04-27 14:53 53.79051 11.11124 1098 ft 137 kts 130°
2026-04-27 14:53 53.78364 11.12266 1094 ft 138 kts 130°
2026-04-27 14:54 53.77684 11.13407 1096 ft 138 kts 130°
2026-04-27 14:54 53.77001 11.14558 1091 ft 138 kts 130°
2026-04-27 14:54 53.76332 11.15691 1098 ft 135 kts 130°
2026-04-27 14:54 53.75890 11.16444 1099 ft 137 kts 130°
2026-04-27 14:55 53.75213 11.17592 1093 ft 137 kts 130°
2026-04-27 14:55 53.74546 11.18720 1092 ft 135 kts 130°
2026-04-27 14:55 53.73865 11.19877 1094 ft 138 kts 130°
2026-04-27 14:55 53.73200 11.21006 1094 ft 137 kts 130°
2026-04-27 14:56 53.72532 11.22143 1093 ft 135 kts 130°
2026-04-27 14:56 53.71864 11.23281 1090 ft 136 kts 130°
2026-04-27 14:56 53.71206 11.24411 1091 ft 133 kts 130°
2026-04-27 14:56 53.70559 11.25540 1096 ft 134 kts 130°
2026-04-27 14:57 53.69909 11.26678 1099 ft 135 kts 130°
2026-04-27 14:57 53.69252 11.27819 1096 ft 136 kts 130°
2026-04-27 14:57 53.68590 11.28965 1092 ft 137 kts 130°
2026-04-27 14:57 53.67925 11.30117 1089 ft 138 kts 130°
2026-04-27 14:58 53.67259 11.31259 1083 ft 135 kts 130°
2026-04-27 14:58 53.66597 11.32400 1087 ft 135 kts 130°
2026-04-27 14:58 53.65929 11.33538 1091 ft 137 kts 130°
2026-04-27 14:58 53.65265 11.34685 1089 ft 137 kts 130°
2026-04-27 14:59 53.64595 11.35836 1086 ft 138 kts 130°
2026-04-27 14:59 53.63919 11.36985 1085 ft 139 kts 130°
2026-04-27 14:59 53.63241 11.38144 1082 ft 139 kts 130°
2026-04-27 14:59 53.62564 11.39313 1079 ft 138 kts 130°
2026-04-27 15:00 53.61887 11.40483 1086 ft 139 kts 130°
2026-04-27 15:00 53.61213 11.41641 1103 ft 138 kts 130°
2026-04-27 15:00 53.60542 11.42791 1108 ft 136 kts 130°
2026-04-27 15:00 53.59892 11.43910 1113 ft 132 kts 130°
2026-04-27 15:01 53.59233 11.45027 1111 ft 136 kts 130°
2026-04-27 15:01 53.58561 11.46170 1111 ft 139 kts 130°
2026-04-27 15:01 53.57881 11.47333 1106 ft 139 kts 130°
2026-04-27 15:01 53.57205 11.48490 1106 ft 139 kts 130°
2026-04-27 15:02 53.56528 11.49647 1101 ft 138 kts 130°
2026-04-27 15:02 53.55850 11.50808 1102 ft 140 kts 130°
2026-04-27 15:02 53.55178 11.51966 1103 ft 138 kts 130°
2026-04-27 15:02 53.54506 11.53114 1108 ft 139 kts 130°
2026-04-27 15:03 53.53815 11.54284 1103 ft 143 kts 130°
2026-04-27 15:03 53.53105 11.55480 1097 ft 146 kts 130°
2026-04-27 15:03 53.52386 11.56707 1089 ft 148 kts 130°
2026-04-27 15:03 53.51665 11.57928 1082 ft 144 kts 130°
2026-04-27 15:04 53.50970 11.59112 1086 ft 141 kts 130°
2026-04-27 15:04 53.50288 11.60297 1096 ft 140 kts 130°
2026-04-27 15:04 53.49630 11.61463 1100 ft 136 kts 129°
2026-04-27 15:04 53.48989 11.62585 1103 ft 133 kts 129°
2026-04-27 15:05 53.48347 11.63702 1107 ft 131 kts 129°
2026-04-27 15:05 53.47698 11.64820 1129 ft 134 kts 129°
2026-04-27 15:05 53.47033 11.65967 1121 ft 139 kts 129°
2026-04-27 15:05 53.46349 11.67136 1121 ft 141 kts 129°
2026-04-27 15:06 53.45680 11.68280 1120 ft 138 kts 129°
2026-04-27 15:06 53.45007 11.69435 1123 ft 139 kts 129°
2026-04-27 15:06 53.44339 11.70596 1123 ft 138 kts 129°
2026-04-27 15:06 53.43666 11.71768 1124 ft 141 kts 129°
2026-04-27 15:07 53.42984 11.72971 1116 ft 142 kts 129°
2026-04-27 15:07 53.42298 11.74175 1114 ft 143 kts 129°
2026-04-27 15:07 53.41616 11.75369 1111 ft 139 kts 129°
2026-04-27 15:07 53.40956 11.76525 1123 ft 137 kts 129°
2026-04-27 15:08 53.40289 11.77708 1117 ft 142 kts 129°
2026-04-27 15:08 53.39609 11.78923 1116 ft 144 kts 129°
2026-04-27 15:08 53.38918 11.80159 1110 ft 146 kts 129°
2026-04-27 15:08 53.38221 11.81387 1110 ft 146 kts 129°
2026-04-27 15:09 53.37523 11.82618 1106 ft 146 kts 129°
2026-04-27 15:09 53.36824 11.83866 1101 ft 146 kts 129°
2026-04-27 15:09 53.36138 11.85080 1103 ft 142 kts 129°
2026-04-27 15:09 53.35465 11.86290 1113 ft 141 kts 129°
2026-04-27 15:10 53.34806 11.87474 1115 ft 139 kts 129°
2026-04-27 15:10 53.34141 11.88675 1118 ft 142 kts 129°
2026-04-27 15:10 53.33465 11.89897 1108 ft 143 kts 129°
2026-04-27 15:10 53.32784 11.91105 1109 ft 142 kts 129°
2026-04-27 15:11 53.32110 11.92295 1143 ft 142 kts 129°
2026-04-27 15:11 53.31441 11.93469 1533 ft 138 kts 129°
2026-04-27 15:11 53.30772 11.94642 1564 ft 148 kts 129°
2026-04-27 15:11 53.30056 11.95912 1578 ft 156 kts 129°
2026-04-27 15:12 53.29319 11.97220 1610 ft 152 kts 129°
2026-04-27 15:12 53.28607 11.98477 1613 ft 146 kts 129°
2026-04-27 15:12 53.27918 11.99698 1617 ft 147 kts 129°
2026-04-27 15:12 53.27219 12.00955 1606 ft 145 kts 129°
2026-04-27 15:13 53.26543 12.02178 1605 ft 141 kts 129°
2026-04-27 15:13 53.25871 12.03384 1620 ft 142 kts 129°
2026-04-27 15:13 53.25177 12.04639 1611 ft 149 kts 129°
2026-04-27 15:13 53.24482 12.05898 1615 ft 146 kts 129°
2026-04-27 15:14 53.23791 12.07148 1615 ft 148 kts 129°
2026-04-27 15:14 53.23082 12.08420 1605 ft 150 kts 129°
2026-04-27 15:14 53.22839 12.08856 1608 ft 151 kts 129°
2026-04-27 15:14 53.21648 12.10990 1610 ft 151 kts 129°
2026-04-27 15:15 53.20940 12.12259 1612 ft 148 kts 129°
2026-04-27 15:15 53.20242 12.13512 1615 ft 148 kts 129°
2026-04-27 15:15 53.19536 12.14789 1604 ft 151 kts 129°
2026-04-27 15:15 53.18832 12.16064 1612 ft 148 kts 129°
2026-04-27 15:16 53.18135 12.17325 1613 ft 147 kts 129°
2026-04-27 15:16 53.17432 12.18597 1601 ft 150 kts 129°
2026-04-27 15:16 53.16713 12.19837 1608 ft 149 kts 131°
2026-04-27 15:16 53.15980 12.21052 1611 ft 147 kts 133°
2026-04-27 15:17 53.15248 12.22243 1609 ft 149 kts 133°
2026-04-27 15:17 53.14504 12.23454 1605 ft 149 kts 133°
2026-04-27 15:17 53.13744 12.24675 1595 ft 149 kts 133°
2026-04-27 15:17 53.12996 12.25828 1603 ft 144 kts 134°
2026-04-27 15:18 53.12252 12.26937 1615 ft 144 kts 135°
2026-04-27 15:18 53.11505 12.28053 1611 ft 145 kts 135°
2026-04-27 15:18 53.10751 12.29166 1614 ft 141 kts 135°
2026-04-27 15:18 53.10000 12.30277 1610 ft 147 kts 135°
2026-04-27 15:19 53.09223 12.31432 1599 ft 151 kts 135°
2026-04-27 15:19 53.08438 12.32590 1608 ft 150 kts 135°
2026-04-27 15:19 53.07651 12.33749 1608 ft 151 kts 135°
2026-04-27 15:19 53.06884 12.34879 1608 ft 145 kts 135°
2026-04-27 15:20 53.06134 12.35993 1593 ft 145 kts 135°
2026-04-27 15:20 53.05377 12.37129 1584 ft 146 kts 135°
2026-04-27 15:20 53.04636 12.38247 1606 ft 145 kts 135°
2026-04-27 15:20 53.03885 12.39387 1610 ft 145 kts 135°
2026-04-27 15:21 53.03162 12.40483 1603 ft 144 kts 135°
2026-04-27 15:21 53.02422 12.41600 1600 ft 145 kts 135°
2026-04-27 15:21 53.01667 12.42743 1579 ft 149 kts 135°
2026-04-27 15:21 53.00903 12.43901 1601 ft 148 kts 135°
2026-04-27 15:22 53.00140 12.45056 1578 ft 151 kts 135°
2026-04-27 15:22 52.99362 12.46230 1599 ft 151 kts 135°
2026-04-27 15:22 52.98582 12.47408 1603 ft 152 kts 135°
2026-04-27 15:22 52.97809 12.48575 1606 ft 148 kts 135°
2026-04-27 15:23 52.97045 12.49728 1585 ft 149 kts 135°
2026-04-27 15:23 52.96285 12.50868 1602 ft 145 kts 135°
2026-04-27 15:23 52.95535 12.51977 1603 ft 145 kts 135°
2026-04-27 15:23 52.94782 12.53088 1590 ft 143 kts 135°
2026-04-27 15:24 52.94045 12.54176 1581 ft 145 kts 135°
2026-04-27 15:24 52.93286 12.55293 1603 ft 147 kts 135°
2026-04-27 15:24 52.92519 12.56414 1581 ft 148 kts 135°
2026-04-27 15:24 52.91745 12.57542 1599 ft 148 kts 135°
2026-04-27 15:25 52.90974 12.58665 1597 ft 146 kts 135°
2026-04-27 15:25 52.90208 12.59782 1596 ft 148 kts 135°
2026-04-27 15:25 52.89440 12.60911 1583 ft 148 kts 135°
2026-04-27 15:25 52.88669 12.62041 1599 ft 148 kts 135°
2026-04-27 15:26 52.87911 12.63143 1591 ft 145 kts 136°
2026-04-27 15:26 52.87173 12.64260 1573 ft 149 kts 134°
2026-04-27 15:26 52.86439 12.65487 1598 ft 149 kts 132°
2026-04-27 15:26 52.85733 12.66716 1581 ft 146 kts 131°
2026-04-27 15:27 52.85049 12.67937 1574 ft 145 kts 130°
2026-04-27 15:27 52.84372 12.69155 1577 ft 143 kts 131°
2026-04-27 15:27 52.83687 12.70388 1597 ft 148 kts 130°
2026-04-27 15:27 52.82981 12.71664 1583 ft 151 kts 130°
2026-04-27 15:28 52.82270 12.72935 1594 ft 149 kts 130°
2026-04-27 15:28 52.81543 12.74181 1413 ft 149 kts 132°
2026-04-27 15:28 52.80867 12.75392 1357 ft 133 kts 121°
2026-04-27 15:28 52.80462 12.76689 1192 ft 126 kts 113°
2026-04-27 15:29 52.80090 12.77940 1071 ft 117 kts 112°
2026-04-27 15:29 52.79724 12.79134 832 ft 118 kts 129°
2026-04-27 15:29 52.79024 12.79151 760 ft 112 kts 235°
2026-04-27 15:29 52.79064 12.77987 517 ft 113 kts 294°
2026-04-27 15:30 52.79248 12.76732 203 ft 102 kts 287°
2026-04-27 15:30 52.79350 12.76028 157 ft 31 kts 291°
2026-04-27 15:30 52.79367 12.75930 143 ft 1 kts 293°
2026-04-27 15:30 52.79376 12.75868 145 ft 5 kts 279°
2026-04-27 15:31 52.79365 12.75819 145 ft 6 kts 199°
2026-04-27 15:31 52.79333 12.75798 145 ft 3 kts 199°
2026-04-27 15:31 52.79326 12.75792 143 ft 0 kts 202°
2026-04-27 15:53 52.79323 12.75793 147 ft 2 kts 32°
2026-04-27 15:53 52.79361 12.75812 144 ft 1 kts 31°
2026-04-27 15:54 52.79389 12.75773 162 ft 20 kts 298°
2026-04-27 15:54 52.79497 12.75119 310 ft 84 kts 290°
2026-04-27 15:54 52.79698 12.73990 466 ft 123 kts 290°
2026-04-27 15:54 52.79371 12.72757 577 ft 148 kts 193°
2026-04-27 15:55 52.78592 12.73716 598 ft 165 kts 104°
2026-04-27 15:55 52.78312 12.75496 706 ft 155 kts 102°
2026-04-27 15:55 52.78025 12.77199 763 ft 156 kts 102°
2026-04-27 15:55 52.77748 12.78888 1043 ft 147 kts 102°
2026-04-27 15:56 52.77362 12.80384 1392 ft 138 kts 113°
2026-04-27 15:56 52.76864 12.81762 1552 ft 144 kts 119°
2026-04-27 15:56 52.76246 12.83166 1545 ft 158 kts 125°
2026-04-27 15:56 52.75564 12.84593 1539 ft 158 kts 126°
2026-04-27 15:57 52.74872 12.86009 1529 ft 157 kts 127°
2026-04-27 15:57 52.74188 12.87417 1531 ft 158 kts 127°
2026-04-27 15:57 52.73496 12.88832 1529 ft 159 kts 127°
2026-04-27 15:57 52.72797 12.90233 1527 ft 159 kts 127°
2026-04-27 15:58 52.72093 12.91647 1525 ft 160 kts 127°
2026-04-27 15:58 52.71396 12.93045 1476 ft 155 kts 127°
2026-04-27 15:58 52.70726 12.94392 1476 ft 148 kts 127°
2026-04-27 15:58 52.70064 12.95668 1478 ft 145 kts 131°
2026-04-27 15:59 52.69329 12.96798 1483 ft 144 kts 135°
2026-04-27 15:59 52.68569 12.97891 1491 ft 145 kts 136°
2026-04-27 15:59 52.67809 12.98966 1489 ft 143 kts 137°
2026-04-27 15:59 52.67056 13.00041 1495 ft 144 kts 137°
2026-04-27 16:00 52.66290 13.01138 1492 ft 146 kts 137°
2026-04-27 16:00 52.65787 13.01860 1489 ft 144 kts 137°
2026-04-27 16:00 52.64790 13.03268 1496 ft 142 kts 137°
2026-04-27 16:00 52.64029 13.04333 1512 ft 146 kts 137°
2026-04-27 16:01 52.63258 13.05428 1519 ft 146 kts 137°
2026-04-27 16:01 52.62493 13.06517 1523 ft 145 kts 137°
2026-04-27 16:01 52.61722 13.07599 1527 ft 147 kts 137°
2026-04-27 16:01 52.60921 13.08693 1521 ft 152 kts 138°
2026-04-27 16:02 52.60084 13.09780 1516 ft 155 kts 139°
2026-04-27 16:02 52.59229 13.10872 1508 ft 155 kts 140°
2026-04-27 16:02 52.58393 13.11931 1504 ft 149 kts 140°
2026-04-27 16:02 52.57568 13.12975 1515 ft 150 kts 140°
2026-04-27 16:03 52.56744 13.14025 1511 ft 149 kts 140°
2026-04-27 16:03 52.55928 13.15068 1511 ft 148 kts 140°
2026-04-27 16:03 52.55117 13.16113 1514 ft 149 kts 140°
2026-04-27 16:03 52.54301 13.17170 1510 ft 149 kts 140°
2026-04-27 16:04 52.53483 13.18234 1508 ft 149 kts 140°
2026-04-27 16:04 52.52671 13.19299 1514 ft 150 kts 139°
2026-04-27 16:04 52.51865 13.20389 1510 ft 150 kts 138°
2026-04-27 16:04 52.51060 13.21497 1428 ft 150 kts 138°
2026-04-27 16:05 52.50268 13.22596 1067 ft 149 kts 138°
2026-04-27 16:05 52.49476 13.23703 981 ft 150 kts 139°
2026-04-27 16:05 52.48695 13.24814 965 ft 147 kts 137°
2026-04-27 16:05 52.47926 13.25880 967 ft 146 kts 138°
2026-04-27 16:06 52.47141 13.26959 967 ft 145 kts 138°
2026-04-27 16:06 52.46383 13.28024 973 ft 146 kts 138°
2026-04-27 16:06 52.45614 13.29118 974 ft 147 kts 138°
2026-04-27 16:06 52.44839 13.30217 966 ft 148 kts 137°
2026-04-27 16:07 52.44051 13.31325 966 ft 151 kts 138°
2026-04-27 16:07 52.43353 13.32544 691 ft 137 kts 98°
2026-04-27 16:07 52.43842 13.33029 701 ft 88 kts 300°
2026-04-27 16:07 52.44010 13.32549 404 ft 28 kts 303°
2026-04-27 16:08 52.44101 13.32363 223 ft 14 kts 306°
2026-04-27 16:08 52.44129 13.32307 156 ft 2 kts 306°
2026-04-27 16:08 52.44138 13.32292 148 ft 3 kts 345°
2026-04-27 16:08 52.44161 13.32276 145 ft 3 kts 344°
2026-04-27 16:09 52.44167 13.32275 144 ft 3 kts 185°
2026-04-27 16:35 52.44148 13.32284 135 ft 5 kts 185°
2026-04-27 16:36 52.44134 13.32295 132 ft 3 kts 297°
2026-04-27 16:36 52.44117 13.32298 197 ft 8 kts 342°
2026-04-27 16:36 52.44038 13.32329 329 ft 15 kts 343°
2026-04-27 16:36 52.44027 13.32334 531 ft 30 kts 342°
2026-04-27 16:37 52.44392 13.31933 592 ft 96 kts 320°
2026-04-27 16:37 52.44989 13.31006 671 ft 135 kts 317°
2026-04-27 16:37 52.45719 13.29887 917 ft 147 kts 318°
2026-04-27 16:37 52.46466 13.28747 1009 ft 146 kts 318°
2026-04-27 16:38 52.47211 13.27605 1034 ft 147 kts 318°
2026-04-27 16:38 52.47966 13.26432 1045 ft 152 kts 317°
2026-04-27 16:38 52.48740 13.25248 1011 ft 151 kts 317°
2026-04-27 16:38 52.49485 13.24070 999 ft 147 kts 317°
2026-04-27 16:39 52.50199 13.22899 997 ft 145 kts 317°
2026-04-27 16:39 52.50912 13.21734 1003 ft 144 kts 316°
2026-04-27 16:39 52.51625 13.20597 1008 ft 143 kts 317°
2026-04-27 16:39 52.52331 13.19446 1010 ft 143 kts 317°
2026-04-27 16:40 52.53031 13.18298 996 ft 140 kts 317°
2026-04-27 16:40 52.53712 13.17183 986 ft 136 kts 317°
2026-04-27 16:40 52.54366 13.16106 993 ft 134 kts 317°
2026-04-27 16:40 52.55020 13.15024 998 ft 133 kts 317°
2026-04-27 16:41 52.55671 13.13943 997 ft 133 kts 317°
2026-04-27 16:41 52.56319 13.12866 999 ft 132 kts 317°
2026-04-27 16:41 52.56963 13.11791 1010 ft 131 kts 317°
2026-04-27 16:41 52.57602 13.10731 1041 ft 130 kts 317°
2026-04-27 16:42 52.58258 13.09691 1056 ft 132 kts 318°
2026-04-27 16:42 52.58930 13.08656 1058 ft 133 kts 319°
2026-04-27 16:42 52.59617 13.07615 1054 ft 134 kts 319°
2026-04-27 16:42 52.60300 13.06580 1054 ft 133 kts 319°
2026-04-27 16:43 52.60984 13.05542 1058 ft 135 kts 319°
2026-04-27 16:43 52.61688 13.04486 1056 ft 138 kts 319°
2026-04-27 16:43 52.62410 13.03418 1051 ft 141 kts 320°
2026-04-27 16:43 52.63140 13.02341 1043 ft 140 kts 320°
2026-04-27 16:44 52.63846 13.01290 1044 ft 135 kts 320°
2026-04-27 16:44 52.64539 13.00272 1054 ft 133 kts 320°
2026-04-27 16:44 52.65233 12.99254 1059 ft 135 kts 320°
2026-04-27 16:44 52.65941 12.98214 1058 ft 137 kts 320°
2026-04-27 16:45 52.66647 12.97162 1053 ft 136 kts 320°
2026-04-27 16:45 52.67348 12.96122 1052 ft 135 kts 320°
2026-04-27 16:45 52.68059 12.95078 1057 ft 137 kts 320°
2026-04-27 16:45 52.68769 12.94023 1052 ft 137 kts 319°
2026-04-27 16:46 52.69468 12.92963 1055 ft 137 kts 319°
2026-04-27 16:46 52.70163 12.91903 1054 ft 135 kts 319°
2026-04-27 16:46 52.70857 12.90843 1056 ft 136 kts 319°
2026-04-27 16:46 52.71554 12.89781 1057 ft 136 kts 319°
2026-04-27 16:47 52.72254 12.88716 1054 ft 138 kts 319°
2026-04-27 16:47 52.72960 12.87643 1053 ft 138 kts 319°
2026-04-27 16:47 52.73663 12.86573 1058 ft 137 kts 319°
2026-04-27 16:47 52.74365 12.85503 1056 ft 138 kts 319°
2026-04-27 16:48 52.75070 12.84431 1056 ft 137 kts 319°
2026-04-27 16:48 52.75763 12.83378 1055 ft 137 kts 319°
2026-04-27 16:48 52.76466 12.82313 1056 ft 136 kts 319°
2026-04-27 16:49 52.77850 12.80203 1056 ft 136 kts 319°
2026-04-27 16:49 52.78546 12.79129 1064 ft 137 kts 319°
2026-04-27 16:49 52.79246 12.78044 1060 ft 139 kts 319°
2026-04-27 16:49 52.79951 12.76967 1056 ft 137 kts 319°
2026-04-27 16:50 52.80647 12.75913 1057 ft 135 kts 319°
2026-04-27 16:50 52.81331 12.74859 1063 ft 134 kts 319°
2026-04-27 16:50 52.82017 12.73797 1065 ft 136 kts 319°
2026-04-27 16:50 52.82709 12.72725 1066 ft 136 kts 319°
2026-04-27 16:51 52.83399 12.71657 1063 ft 135 kts 319°
2026-04-27 16:51 52.84081 12.70607 1064 ft 134 kts 319°
2026-04-27 16:51 52.84761 12.69563 1070 ft 133 kts 319°
2026-04-27 16:51 52.85438 12.68527 1072 ft 133 kts 319°
2026-04-27 16:52 52.86122 12.67491 1072 ft 134 kts 319°
2026-04-27 16:52 52.86813 12.66445 1073 ft 135 kts 319°
2026-04-27 16:52 52.87512 12.65392 1068 ft 136 kts 319°
2026-04-27 16:52 52.88213 12.64335 1066 ft 137 kts 319°
2026-04-27 16:53 52.88916 12.63274 1062 ft 137 kts 319°
2026-04-27 16:53 52.89617 12.62216 1064 ft 136 kts 319°
2026-04-27 16:53 52.90309 12.61141 1065 ft 137 kts 317°
2026-04-27 16:53 52.90979 12.60059 1062 ft 136 kts 316°
2026-04-27 16:54 52.91655 12.58965 1064 ft 135 kts 316°
2026-04-27 16:54 52.92326 12.57884 1070 ft 135 kts 316°
2026-04-27 16:54 52.92997 12.56790 1066 ft 135 kts 316°
2026-04-27 16:54 52.93665 12.55700 1070 ft 135 kts 316°
2026-04-27 16:55 52.94333 12.54622 1068 ft 134 kts 316°
2026-04-27 16:55 52.95002 12.53537 1071 ft 135 kts 316°
2026-04-27 16:55 52.95667 12.52456 1073 ft 134 kts 316°
2026-04-27 16:55 52.96336 12.51372 1075 ft 135 kts 316°
2026-04-27 16:56 52.97008 12.50290 1072 ft 135 kts 316°
2026-04-27 16:56 52.97665 12.49177 1071 ft 135 kts 315°
2026-04-27 16:56 52.98313 12.48051 1070 ft 135 kts 315°
2026-04-27 16:56 52.98963 12.46918 1074 ft 136 kts 314°
2026-04-27 16:57 52.99620 12.45784 1075 ft 137 kts 314°
2026-04-27 16:57 53.00281 12.44649 1072 ft 137 kts 314°
2026-04-27 16:57 53.00940 12.43520 1070 ft 135 kts 315°
2026-04-27 16:57 53.01587 12.42397 1078 ft 134 kts 315°
2026-04-27 16:58 53.02231 12.41282 1078 ft 133 kts 314°
2026-04-27 16:58 53.02875 12.40174 1080 ft 133 kts 315°
2026-04-27 16:58 53.03517 12.39068 1083 ft 134 kts 314°
2026-04-27 16:58 53.04168 12.37946 1081 ft 136 kts 314°
2026-04-27 16:59 53.04819 12.36815 1074 ft 134 kts 314°
2026-04-27 16:59 53.05462 12.35697 1079 ft 133 kts 314°
2026-04-27 16:59 53.06106 12.34582 1080 ft 134 kts 315°
2026-04-27 16:59 53.06749 12.33470 1080 ft 133 kts 314°
2026-04-27 17:00 53.07825 12.31622 1081 ft 134 kts 314°
2026-04-27 17:00 53.08691 12.30143 1080 ft 134 kts 314°
2026-04-27 17:00 53.09341 12.29026 1082 ft 135 kts 314°
2026-04-27 17:01 53.09981 12.27917 1080 ft 134 kts 315°
2026-04-27 17:01 53.10633 12.26791 1083 ft 136 kts 315°
2026-04-27 17:01 53.11302 12.25674 1081 ft 137 kts 316°
2026-04-27 17:01 53.11984 12.24554 1079 ft 138 kts 316°
2026-04-27 17:02 53.12663 12.23442 1075 ft 136 kts 316°
2026-04-27 17:02 53.13332 12.22345 1080 ft 134 kts 316°
2026-04-27 17:02 53.13998 12.21255 1083 ft 134 kts 316°
2026-04-27 17:02 53.14666 12.20168 1088 ft 134 kts 316°
2026-04-27 17:03 53.15334 12.19086 1086 ft 134 kts 316°
2026-04-27 17:03 53.16001 12.18004 1087 ft 134 kts 316°
2026-04-27 17:03 53.16674 12.16913 1088 ft 136 kts 316°
2026-04-27 17:03 53.17359 12.15797 1084 ft 138 kts 316°
2026-04-27 17:04 53.18042 12.14669 1077 ft 139 kts 316°
2026-04-27 17:04 53.18730 12.13539 1074 ft 138 kts 316°
2026-04-27 17:04 53.19411 12.12424 1076 ft 136 kts 316°
2026-04-27 17:04 53.20085 12.11322 1083 ft 136 kts 316°
2026-04-27 17:05 53.20761 12.10222 1084 ft 136 kts 317°
2026-04-27 17:05 53.21441 12.09112 1089 ft 138 kts 317°
2026-04-27 17:05 53.22130 12.07993 1082 ft 138 kts 317°
2026-04-27 17:05 53.22582 12.07259 1082 ft 136 kts 317°
2026-04-27 17:06 53.23484 12.05804 1080 ft 134 kts 317°
2026-04-27 17:06 53.24162 12.04717 1082 ft 135 kts 317°
2026-04-27 17:06 53.24844 12.03626 1083 ft 136 kts 317°
2026-04-27 17:06 53.25531 12.02530 1084 ft 137 kts 317°
2026-04-27 17:07 53.26211 12.01445 1086 ft 137 kts 317°
2026-04-27 17:07 53.26898 12.00344 1085 ft 137 kts 317°
2026-04-27 17:07 53.27587 11.99239 1086 ft 138 kts 317°
2026-04-27 17:07 53.28280 11.98126 1085 ft 139 kts 317°
2026-04-27 17:08 53.28972 11.97007 1078 ft 138 kts 317°
2026-04-27 17:08 53.29662 11.95891 1082 ft 138 kts 317°
2026-04-27 17:08 53.30348 11.94780 1084 ft 137 kts 317°
2026-04-27 17:08 53.31033 11.93672 1084 ft 136 kts 317°
2026-04-27 17:09 53.31715 11.92573 1089 ft 136 kts 317°
2026-04-27 17:09 53.32401 11.91472 1089 ft 137 kts 317°
2026-04-27 17:09 53.33086 11.90373 1086 ft 136 kts 317°
2026-04-27 17:09 53.33768 11.89280 1092 ft 135 kts 317°
2026-04-27 17:10 53.34449 11.88185 1093 ft 136 kts 317°
2026-04-27 17:10 53.35133 11.87087 1089 ft 136 kts 317°
2026-04-27 17:10 53.35813 11.85993 1090 ft 135 kts 317°
2026-04-27 17:10 53.36495 11.84894 1094 ft 136 kts 317°
2026-04-27 17:11 53.37179 11.83790 1092 ft 137 kts 317°
2026-04-27 17:11 53.38553 11.81573 1091 ft 137 kts 317°
2026-04-27 17:11 53.39242 11.80465 1090 ft 138 kts 317°
2026-04-27 17:12 53.40611 11.78256 1093 ft 135 kts 317°
2026-04-27 17:12 53.41279 11.77176 1095 ft 135 kts 317°
2026-04-27 17:12 53.41956 11.76082 1100 ft 136 kts 317°
2026-04-27 17:13 53.42637 11.74976 1097 ft 137 kts 317°
2026-04-27 17:13 53.43324 11.73861 1100 ft 138 kts 317°
2026-04-27 17:13 53.44014 11.72746 1095 ft 138 kts 317°
2026-04-27 17:13 53.44699 11.71637 1093 ft 137 kts 318°
2026-04-27 17:14 53.45389 11.70522 1098 ft 138 kts 318°
2026-04-27 17:14 53.46082 11.69405 1094 ft 138 kts 318°
2026-04-27 17:14 53.46774 11.68292 1094 ft 138 kts 318°
2026-04-27 17:14 53.47465 11.67182 1097 ft 137 kts 318°
2026-04-27 17:15 53.48157 11.66074 1097 ft 137 kts 318°
2026-04-27 17:15 53.48846 11.64957 1092 ft 137 kts 317°
2026-04-27 17:15 53.49525 11.63822 1095 ft 138 kts 316°
2026-04-27 17:15 53.50198 11.62662 1092 ft 138 kts 315°
2026-04-27 17:16 53.50841 11.61508 1094 ft 137 kts 314°
2026-04-27 17:16 53.51502 11.60321 1099 ft 138 kts 314°
2026-04-27 17:16 53.52154 11.59146 1099 ft 138 kts 314°
2026-04-27 17:16 53.52795 11.57984 1096 ft 137 kts 314°
2026-04-27 17:17 53.53436 11.56818 1097 ft 135 kts 314°
2026-04-27 17:17 53.54075 11.55648 1105 ft 137 kts 314°
2026-04-27 17:17 53.54717 11.54470 1101 ft 137 kts 314°
2026-04-27 17:18 53.56017 11.52106 1097 ft 137 kts 314°
2026-04-27 17:18 53.56663 11.50923 1102 ft 137 kts 314°
2026-04-27 17:18 53.57310 11.49738 1104 ft 138 kts 314°
2026-04-27 17:18 53.57964 11.48547 1102 ft 138 kts 314°
2026-04-27 17:19 53.58616 11.47360 1098 ft 138 kts 314°
2026-04-27 17:19 53.59269 11.46178 1103 ft 137 kts 314°
2026-04-27 17:19 53.59920 11.44999 1101 ft 138 kts 314°
2026-04-27 17:19 53.60571 11.43817 1103 ft 138 kts 314°
2026-04-27 17:20 53.61007 11.43024 1087 ft 141 kts 314°
2026-04-27 17:20 53.61679 11.41804 1067 ft 142 kts 314°
2026-04-27 17:20 53.62349 11.40585 1058 ft 142 kts 314°
2026-04-27 17:20 53.63013 11.39366 1061 ft 141 kts 314°
2026-04-27 17:21 53.63676 11.38143 1059 ft 142 kts 314°
2026-04-27 17:21 53.64339 11.36921 1058 ft 140 kts 314°
2026-04-27 17:21 53.64991 11.35722 1062 ft 138 kts 314°
2026-04-27 17:21 53.65643 11.34534 1066 ft 138 kts 314°
2026-04-27 17:22 53.66296 11.33339 1069 ft 139 kts 314°
2026-04-27 17:22 53.66946 11.32140 1071 ft 137 kts 314°
2026-04-27 17:22 53.67597 11.30945 1073 ft 139 kts 314°
2026-04-27 17:22 53.68249 11.29748 1069 ft 139 kts 314°
2026-04-27 17:23 53.68901 11.28548 1072 ft 138 kts 314°
2026-04-27 17:23 53.69549 11.27356 1078 ft 138 kts 314°
2026-04-27 17:23 53.70204 11.26155 1080 ft 140 kts 314°
2026-04-27 17:23 53.70865 11.24945 1075 ft 141 kts 314°
2026-04-27 17:24 53.71529 11.23729 1073 ft 140 kts 314°
2026-04-27 17:24 53.72184 11.22524 1075 ft 139 kts 314°
2026-04-27 17:24 53.72827 11.21343 1074 ft 138 kts 314°
2026-04-27 17:24 53.73476 11.20153 1080 ft 138 kts 314°
2026-04-27 17:25 53.74124 11.18962 1084 ft 138 kts 314°
2026-04-27 17:25 53.74775 11.17770 1083 ft 138 kts 314°
2026-04-27 17:25 53.75428 11.16578 1089 ft 139 kts 314°
2026-04-27 17:25 53.76087 11.15377 1087 ft 140 kts 314°
2026-04-27 17:26 53.76748 11.14163 1089 ft 140 kts 314°
2026-04-27 17:26 53.77408 11.12949 1085 ft 140 kts 314°
2026-04-27 17:26 53.78068 11.11738 1084 ft 140 kts 314°
2026-04-27 17:26 53.78726 11.10530 1085 ft 139 kts 314°
2026-04-27 17:27 53.79373 11.09336 1087 ft 138 kts 314°
2026-04-27 17:27 53.80022 11.08134 1090 ft 138 kts 314°
2026-04-27 17:27 53.80670 11.06937 1097 ft 138 kts 314°
2026-04-27 17:27 53.81318 11.05742 1098 ft 138 kts 314°
2026-04-27 17:28 53.81966 11.04536 1098 ft 139 kts 314°
2026-04-27 17:28 53.82619 11.03329 1094 ft 139 kts 314°
2026-04-27 17:28 53.84064 11.01258 1103 ft 136 kts 323°
2026-04-27 17:29 53.84814 11.00269 1106 ft 137 kts 324°
2026-04-27 17:29 53.85567 10.99279 1103 ft 137 kts 324°
2026-04-27 17:29 53.86318 10.98294 1105 ft 136 kts 324°
2026-04-27 17:29 53.87066 10.97313 1103 ft 136 kts 324°
2026-04-27 17:30 53.87819 10.96328 1109 ft 137 kts 324°
2026-04-27 17:30 53.89310 10.94300 1099 ft 138 kts 321°
2026-04-27 17:30 53.90025 10.93214 1098 ft 138 kts 319°
2026-04-27 17:31 53.90732 10.92118 1106 ft 138 kts 319°
2026-04-27 17:31 53.91439 10.91021 1102 ft 138 kts 319°
2026-04-27 17:31 53.92148 10.89922 1103 ft 139 kts 319°
2026-04-27 17:31 53.92863 10.88814 1101 ft 139 kts 319°
2026-04-27 17:32 53.93567 10.87714 1101 ft 139 kts 319°
2026-04-27 17:32 53.94994 10.85490 1101 ft 138 kts 319°
2026-04-27 17:32 53.95699 10.84385 1103 ft 138 kts 319°
2026-04-27 17:33 53.96398 10.83279 1108 ft 137 kts 319°
2026-04-27 17:33 53.97094 10.82173 1106 ft 137 kts 319°
2026-04-27 17:33 53.97770 10.81025 1100 ft 137 kts 316°
2026-04-27 17:33 53.98423 10.79839 1104 ft 138 kts 314°
2026-04-27 17:34 53.99076 10.78629 1102 ft 139 kts 314°
2026-04-27 17:34 53.99729 10.77414 1101 ft 139 kts 314°
2026-04-27 17:34 54.00376 10.76208 1102 ft 137 kts 314°
2026-04-27 17:34 54.01020 10.75014 1105 ft 137 kts 314°
2026-04-27 17:35 54.01668 10.73807 1105 ft 139 kts 314°
2026-04-27 17:35 54.02322 10.72586 1107 ft 137 kts 314°
2026-04-27 17:35 54.02949 10.71385 1103 ft 138 kts 313°
2026-04-27 17:35 54.03569 10.70149 1102 ft 137 kts 312°
2026-04-27 17:36 54.04190 10.68903 1103 ft 139 kts 312°
2026-04-27 17:36 54.04814 10.67651 1106 ft 139 kts 312°
2026-04-27 17:36 54.05441 10.66397 1106 ft 139 kts 312°
2026-04-27 17:36 54.06064 10.65157 1103 ft 137 kts 312°
2026-04-27 17:37 54.06678 10.63919 1106 ft 136 kts 312°
2026-04-27 17:37 54.07291 10.62682 1108 ft 138 kts 312°
2026-04-27 17:37 54.07912 10.61433 1107 ft 138 kts 312°
2026-04-27 17:37 54.08535 10.60177 1105 ft 139 kts 312°
2026-04-27 17:38 54.09156 10.58926 1106 ft 138 kts 312°
2026-04-27 17:38 54.09776 10.57675 1106 ft 138 kts 312°
2026-04-27 17:38 54.10394 10.56432 1108 ft 138 kts 312°
2026-04-27 17:38 54.11021 10.55178 1107 ft 139 kts 312°
2026-04-27 17:39 54.11648 10.53914 1101 ft 140 kts 312°
2026-04-27 17:39 54.12278 10.52639 1094 ft 141 kts 312°
2026-04-27 17:39 54.12906 10.51369 1105 ft 140 kts 312°
2026-04-27 17:39 54.13532 10.50111 1109 ft 139 kts 312°
2026-04-27 17:40 54.14159 10.48850 1110 ft 140 kts 312°
2026-04-27 17:40 54.14792 10.47569 1109 ft 142 kts 312°
2026-04-27 17:40 54.15420 10.46302 1106 ft 142 kts 312°
2026-04-27 17:40 54.16054 10.45016 1107 ft 142 kts 312°
2026-04-27 17:41 54.16680 10.43729 1109 ft 141 kts 312°
2026-04-27 17:41 54.17307 10.42449 1113 ft 140 kts 312°
2026-04-27 17:41 54.17933 10.41174 1116 ft 140 kts 312°
2026-04-27 17:41 54.18560 10.39894 1115 ft 141 kts 312°
2026-04-27 17:42 54.19183 10.38606 1120 ft 141 kts 312°
2026-04-27 17:42 54.19808 10.37322 1120 ft 140 kts 312°
2026-04-27 17:42 54.20433 10.36042 1120 ft 140 kts 312°
2026-04-27 17:42 54.21055 10.34768 1125 ft 140 kts 312°
2026-04-27 17:43 54.21680 10.33494 1127 ft 140 kts 312°
2026-04-27 17:43 54.22306 10.32215 1125 ft 140 kts 312°
2026-04-27 17:43 54.22933 10.30935 1126 ft 141 kts 312°
2026-04-27 17:43 54.23565 10.29653 1126 ft 140 kts 312°
2026-04-27 17:44 54.24188 10.28374 1130 ft 141 kts 312°
2026-04-27 17:44 54.24819 10.27083 1130 ft 142 kts 312°
2026-04-27 17:44 54.25447 10.25803 1130 ft 140 kts 312°
2026-04-27 17:44 54.26071 10.24522 1136 ft 141 kts 312°
2026-04-27 17:45 54.26695 10.23229 1136 ft 141 kts 312°
2026-04-27 17:45 54.27324 10.21927 1134 ft 142 kts 312°
2026-04-27 17:45 54.27950 10.20632 1138 ft 141 kts 312°
2026-04-27 17:45 54.28573 10.19347 1135 ft 140 kts 312°
2026-04-27 17:46 54.29195 10.18074 1088 ft 137 kts 312°
2026-04-27 17:46 54.29805 10.16852 946 ft 137 kts 313°
2026-04-27 17:46 54.30415 10.15645 847 ft 130 kts 313°
2026-04-27 17:46 54.30989 10.14512 842 ft 121 kts 324°
2026-04-27 17:47 54.31755 10.14023 743 ft 119 kts
2026-04-27 17:47 54.32283 10.14106 666 ft 109 kts
2026-04-27 17:47 54.32872 10.14121 445 ft 18 kts 21°
2026-04-27 17:47 54.32952 10.14163 375 ft 12 kts 23°
2026-04-27 17:48 54.33045 10.14201 289 ft 13 kts 49°
2026-04-27 17:48 54.33091 10.14254 176 ft 5 kts 52°
2026-04-27 17:48 54.33101 10.14273 157 ft 2 kts 53°
2026-04-27 17:48 54.33104 10.14277 146 ft 0 kts 53°
2026-04-27 18:05 54.33103 10.14274 154 ft 2 kts 53°
2026-04-27 18:05 54.33082 10.14227 242 ft 8 kts 53°
2026-04-27 18:05 54.33048 10.14142 405 ft 6 kts 55°
2026-04-27 18:05 54.33196 10.14571 622 ft 75 kts 73°
2026-04-27 18:06 54.32724 10.15258 684 ft 132 kts 187°
2026-04-27 18:06 54.32312 10.13810 854 ft 155 kts 275°
2026-04-27 18:06 54.32395 10.11970 938 ft 155 kts 277°
2026-04-27 18:06 54.32082 10.10255 911 ft 159 kts 244°
2026-04-27 18:07 54.31594 10.08565 1060 ft 154 kts 244°
2026-04-27 18:07 54.31128 10.06945 1157 ft 154 kts 244°
2026-04-27 18:07 54.30655 10.05283 1179 ft 157 kts 244°
2026-04-27 18:07 54.30172 10.03610 1152 ft 157 kts 244°
2026-04-27 18:08 54.29694 10.01946 1140 ft 155 kts 244°
2026-04-27 18:08 54.29219 10.00298 1141 ft 154 kts 244°
2026-04-27 18:08 54.28764 9.98654 1145 ft 153 kts 245°
2026-04-27 18:08 54.28319 9.97007 1142 ft 152 kts 246°
2026-04-27 18:09 54.27879 9.95363 1145 ft 152 kts 246°
2026-04-27 18:09 54.27439 9.93718 1144 ft 152 kts 246°
2026-04-27 18:09 54.27002 9.92082 1143 ft 151 kts 246°
2026-04-27 18:09 54.26569 9.90449 1141 ft 150 kts 246°
2026-04-27 18:10 54.26136 9.88821 1144 ft 151 kts 246°
2026-04-27 18:10 54.25701 9.87181 1145 ft 152 kts 246°
2026-04-27 18:10 54.25263 9.85530 1124 ft 153 kts 246°
2026-04-27 18:10 54.24820 9.83865 1120 ft 154 kts 246°
2026-04-27 18:11 54.24380 9.82200 1125 ft 154 kts 246°
2026-04-27 18:11 54.23939 9.80529 1119 ft 155 kts 246°
2026-04-27 18:11 54.23500 9.78858 1116 ft 153 kts 246°
2026-04-27 18:11 54.23055 9.77187 1119 ft 155 kts 246°
2026-04-27 18:12 54.22613 9.75522 1120 ft 154 kts 246°
2026-04-27 18:12 54.22171 9.73858 1118 ft 154 kts 246°
2026-04-27 18:12 54.21730 9.72197 1123 ft 153 kts 246°
2026-04-27 18:12 54.21290 9.70541 1117 ft 152 kts 246°
2026-04-27 18:13 54.20854 9.68896 1120 ft 152 kts 246°
2026-04-27 18:13 54.20414 9.67250 1122 ft 152 kts 246°
2026-04-27 18:13 54.19972 9.65605 1124 ft 153 kts 246°
2026-04-27 18:13 54.19525 9.63955 1124 ft 153 kts 246°
2026-04-27 18:14 54.19083 9.62304 1070 ft 151 kts 246°
2026-04-27 18:14 54.18807 9.60670 882 ft 136 kts 279°
2026-04-27 18:14 54.19257 9.59431 848 ft 120 kts 323°
2026-04-27 18:14 54.19975 9.58836 738 ft 108 kts 342°
2026-04-27 18:15 54.20662 9.58542 490 ft 99 kts 11°
2026-04-27 18:15 54.21245 9.59084 273 ft 95 kts 37°
2026-04-27 18:15 54.21765 9.59679 52 ft 75 kts 35°
2026-04-27 18:15 54.22036 9.59997 33 ft 18 kts 35°
2026-04-27 18:16 54.22050 9.60021 32 ft 5 kts 178°
2026-04-27 18:16 54.22029 9.59981 32 ft 7 kts 216°
2026-04-27 18:16 54.21967 9.59905 32 ft 14 kts 214°
2026-04-27 18:16 54.21885 9.59805 34 ft 13 kts 213°
2026-04-27 18:17 54.21815 9.59723 35 ft 12 kts 213°
2026-04-27 18:17 54.21747 9.59762 42 ft 20 kts 130°
2026-04-27 18:17 54.21717 9.59874 32 ft 8 kts 125°
2026-04-27 18:17 54.21697 9.59946 31 ft 4 kts 124°
2026-04-27 18:18 54.21699 9.59989 30 ft 4 kts 58°
2026-04-27 18:18 54.21698 9.59997 30 ft 1 kts 229°
2026-04-27 18:18 54.21697 9.59994 27 ft 0 kts 221°
2026-04-27 19:32 54.21687 9.59969 29 ft 4 kts 295°
2026-04-27 19:32 54.21715 9.59871 37 ft 18 kts 304°
2026-04-27 19:32 54.21757 9.59729 28 ft 6 kts 306°
2026-04-27 19:33 54.21777 9.59687 32 ft 4 kts 35°
2026-04-27 19:33 54.21794 9.59711 50 ft 20 kts 35°
2026-04-27 19:33 54.22438 9.60112 381 ft 93 kts 315°
2026-04-27 19:33 54.22136 9.58960 638 ft 128 kts 225°
2026-04-27 19:34 54.21787 9.57660 1122 ft 128 kts 268°
2026-04-27 19:34 54.21805 9.56053 981 ft 138 kts 272°
2026-04-27 19:34 54.21821 9.54463 970 ft 130 kts 273°
2026-04-27 19:34 54.21834 9.52934 1028 ft 131 kts 272°
2026-04-27 19:35 54.21849 9.51286 1150 ft 146 kts 272°
2026-04-27 19:35 54.21867 9.49449 1120 ft 158 kts 272°
2026-04-27 19:35 54.21871 9.47555 1109 ft 161 kts 270°
2026-04-27 19:35 54.21844 9.45643 1102 ft 161 kts 270°
2026-04-27 19:36 54.21821 9.44372 1092 ft 161 kts 269°
2026-04-27 19:36 54.21768 9.42492 1069 ft 156 kts 268°
2026-04-27 19:36 54.21703 9.40653 1067 ft 154 kts 268°
2026-04-27 19:36 54.21635 9.38833 1075 ft 153 kts 267°
2026-04-27 19:37 54.21565 9.37023 1079 ft 153 kts 267°
2026-04-27 19:37 54.21492 9.35206 1080 ft 153 kts 267°
2026-04-27 19:37 54.21417 9.33393 1219 ft 153 kts 267°
2026-04-27 19:37 54.21343 9.31585 1713 ft 152 kts 267°
2026-04-27 19:38 54.21272 9.29794 2192 ft 150 kts 267°
2026-04-27 19:38 54.21198 9.28000 2568 ft 154 kts 267°
2026-04-27 19:38 54.21124 9.26122 2596 ft 160 kts 267°
2026-04-27 19:38 54.21049 9.24233 2572 ft 158 kts 267°
2026-04-27 19:39 54.20974 9.22369 2571 ft 157 kts 267°
2026-04-27 19:39 54.20900 9.20517 2569 ft 156 kts 267°
2026-04-27 19:39 54.20824 9.18675 2569 ft 155 kts 267°
2026-04-27 19:39 54.20746 9.16841 2574 ft 155 kts 267°
2026-04-27 19:40 54.20666 9.15004 2576 ft 155 kts 267°
2026-04-27 19:40 54.20588 9.13171 2574 ft 155 kts 267°
2026-04-27 19:40 54.20506 9.11342 2575 ft 154 kts 267°
2026-04-27 19:40 54.20426 9.09514 2573 ft 154 kts 267°
2026-04-27 19:41 54.20370 9.07685 2578 ft 154 kts 268°
2026-04-27 19:41 54.20323 9.05857 2577 ft 154 kts 269°
2026-04-27 19:41 54.20273 9.04022 2577 ft 155 kts 269°
2026-04-27 19:41 54.20224 9.02204 2581 ft 155 kts 269°
2026-04-27 19:42 54.20174 9.00364 2578 ft 155 kts 269°
2026-04-27 19:42 54.20123 8.98523 2581 ft 155 kts 269°
2026-04-27 19:42 54.20070 8.96684 2580 ft 155 kts 269°
2026-04-27 19:42 54.20018 8.94844 2578 ft 155 kts 269°
2026-04-27 19:43 54.19967 8.93008 2582 ft 155 kts 269°
2026-04-27 19:43 54.19913 8.91170 2581 ft 155 kts 269°
2026-04-27 19:43 54.19856 8.89333 2583 ft 155 kts 269°
2026-04-27 19:43 54.19800 8.87500 2585 ft 155 kts 269°
2026-04-27 19:44 54.19741 8.85665 2588 ft 155 kts 269°
2026-04-27 19:44 54.19683 8.83824 2589 ft 155 kts 269°
2026-04-27 19:44 54.19626 8.81986 2589 ft 156 kts 269°
2026-04-27 19:44 54.19572 8.80134 2589 ft 156 kts 269°
2026-04-27 19:45 54.19584 8.78306 2602 ft 152 kts 290°
2026-04-27 19:45 54.20369 8.77253 2644 ft 150 kts 359°
2026-04-27 19:45 54.21190 8.78044 2567 ft 139 kts 65°
2026-04-27 19:45 54.21193 8.79595 2514 ft 126 kts 99°
2026-04-27 19:46 54.20935 8.80969 2517 ft 119 kts 106°
2026-04-27 19:46 54.20625 8.82260 2533 ft 117 kts 108°
2026-04-27 19:46 54.20329 8.83545 2552 ft 117 kts 104°
2026-04-27 19:46 54.20116 8.84892 2563 ft 118 kts 99°
2026-04-27 19:47 54.19955 8.86263 2558 ft 119 kts 97°
2026-04-27 19:47 54.19812 8.87655 2556 ft 119 kts 95°
2026-04-27 19:47 54.19719 8.89060 2558 ft 119 kts 92°
2026-04-27 19:47 54.19664 8.90470 2561 ft 119 kts 90°
2026-04-27 19:48 54.19628 8.91877 2555 ft 118 kts 89°
2026-04-27 19:48 54.19597 8.93279 2551 ft 118 kts 89°
2026-04-27 19:48 54.19574 8.94680 2555 ft 118 kts 89°
2026-04-27 19:48 54.19553 8.96078 2554 ft 118 kts 89°
2026-04-27 19:49 54.19532 8.97474 2554 ft 118 kts 89°
2026-04-27 19:49 54.19511 8.98870 2550 ft 118 kts 89°
2026-04-27 19:49 54.19489 9.00269 2555 ft 118 kts 89°
2026-04-27 19:49 54.19469 9.01720 2631 ft 127 kts 89°
2026-04-27 19:50 54.19452 9.03308 2642 ft 136 kts 89°
2026-04-27 19:50 54.19436 9.04926 2634 ft 140 kts 89°
2026-04-27 19:50 54.19421 9.06590 2609 ft 139 kts 89°
2026-04-27 19:50 54.19406 9.08237 2602 ft 138 kts 89°
2026-04-27 19:51 54.19394 9.09869 2599 ft 137 kts 89°
2026-04-27 19:51 54.19380 9.11500 2597 ft 136 kts 89°
2026-04-27 19:51 54.19363 9.13111 2604 ft 136 kts 89°
2026-04-27 19:51 54.19349 9.14724 2606 ft 136 kts 89°
2026-04-27 19:52 54.19338 9.16337 2603 ft 136 kts 89°
2026-04-27 19:52 54.19327 9.17953 2604 ft 136 kts 89°
2026-04-27 19:52 54.19317 9.19569 2603 ft 136 kts 89°
2026-04-27 19:52 54.19307 9.21184 2603 ft 136 kts 89°
2026-04-27 19:53 54.19295 9.24408 2603 ft 136 kts 89°
2026-04-27 19:53 54.19289 9.26022 2607 ft 136 kts 89°
2026-04-27 19:53 54.19284 9.27630 2602 ft 135 kts 89°
2026-04-27 19:54 54.19276 9.29234 2603 ft 136 kts 89°
2026-04-27 19:54 54.19270 9.30846 2605 ft 136 kts 89°
2026-04-27 19:54 54.19266 9.32458 2604 ft 136 kts 89°
2026-04-27 19:54 54.19266 9.34070 2604 ft 136 kts 89°
2026-04-27 19:55 54.19264 9.35683 2601 ft 136 kts 89°
2026-04-27 19:55 54.19259 9.37294 2601 ft 135 kts 89°
2026-04-27 19:55 54.19255 9.38903 2605 ft 136 kts 89°
2026-04-27 19:55 54.19255 9.40514 2602 ft 135 kts 89°
2026-04-27 19:56 54.19254 9.42123 2603 ft 136 kts 89°
2026-04-27 19:56 54.19251 9.43736 2605 ft 136 kts 89°
2026-04-27 19:56 54.19252 9.45349 2599 ft 136 kts 89°
2026-04-27 19:56 54.19253 9.46953 2594 ft 134 kts 89°
2026-04-27 19:57 54.19253 9.48542 2531 ft 138 kts 89°
2026-04-27 19:57 54.19262 9.50202 2343 ft 137 kts 88°
2026-04-27 19:57 54.19277 9.51788 2249 ft 130 kts 88°
2026-04-27 19:57 54.19293 9.53291 2155 ft 124 kts 88°
2026-04-27 19:58 54.19309 9.54761 1899 ft 122 kts 88°
2026-04-27 19:58 54.19448 9.56082 1720 ft 110 kts 70°
2026-04-27 19:58 54.19790 9.57211 1469 ft 107 kts 55°
2026-04-27 19:58 54.20278 9.58023 970 ft 90 kts 38°
2026-04-27 19:59 54.20821 9.58650 643 ft 105 kts 33°
2026-04-27 19:59 54.21485 9.59349 254 ft 115 kts 31°
2026-04-27 19:59 54.21987 9.59947 30 ft 41 kts 30°
2026-04-27 19:59 54.22041 9.60021 30 ft 4 kts 291°
2026-04-27 20:00 54.21990 9.59932 32 ft 20 kts 216°
2026-04-27 20:00 54.21856 9.59776 34 ft 24 kts 218°
2026-04-27 20:00 54.21778 9.59690 32 ft 2 kts 143°
2026-04-27 20:00 54.21744 9.59760 33 ft 12 kts 101°
2026-04-27 20:01 54.21705 9.59912 30 ft 9 kts 99°
2026-04-27 20:01 54.21704 9.59993 32 ft 5 kts 174°
2026-04-27 20:01 54.21697 9.59986 26 ft 0 kts 211°